EA7KZ-10 Weather Reports


Display with metric or nautical units.
time (UTC)temp
F
wind
direction
speed
MPH
gust
MPH
rain 1hr
in
rain 24hr
in
rain mn
in
humidity
%
barometer
mb
20260508090442 67 0.0 0.0 0.00 0.00 0.00 48 1012.0
20260508085442 67 0.0 0.0 0.00 0.00 0.00 47 1011.7
20260508084442 67 0.0 0.0 0.00 0.00 0.00 48 1011.7
20260508083441 67 0.0 0.0 0.00 0.00 0.00 48 1011.7
20260508082442 66 0.0 0.0 0.00 0.00 0.00 49 1011.8
20260508081442 66 0.0 0.0 0.00 0.00 0.00 49 1011.7
20260508075442 66 0.0 0.0 0.00 0.00 0.00 51 1011.8
20260508074442 65 0.0 0.0 0.00 0.00 0.00 51 1012.0
20260508073441 65 0.0 0.0 0.00 0.00 0.00 52 1012.2
20260508072441 64 0.0 0.0 0.00 0.00 0.00 52 1012.2
20260508071442 64 0.0 0.0 0.00 0.00 0.00 53 1012.3
20260508070442 63 0.0 0.0 0.00 0.00 0.00 54 1012.4
20260508065441 62 0.0 0.0 0.00 0.00 0.00 57 1012.5
20260508064441 61 0.0 0.0 0.00 0.00 0.00 59 1012.5
20260508063441 60 0.0 0.0 0.00 0.00 0.00 60 1012.3
20260508062442 60 0.0 0.0 0.00 0.00 0.00 60 1012.3
20260508060441 60 0.0 0.0 0.00 0.00 0.00 60 1012.3
20260508055441 60 0.0 0.0 0.00 0.00 0.00 60 1012.4
20260508054441 60 0.0 0.0 0.00 0.00 0.00 59 1012.4
20260508053441 60 0.0 0.0 0.00 0.00 0.00 58 1012.5
20260508052442 60 0.0 0.0 0.00 0.00 0.00 58 1012.2
20260508051442 60 0.0 0.0 0.00 0.00 0.00 57 1012.2
20260508050442 60 0.0 0.0 0.00 0.00 0.00 58 1012.2
20260508045442 60 0.0 0.0 0.00 0.00 0.00 61 1012.1
20260508044441 60 0.0 0.0 0.00 0.00 0.00 62 1012.0
20260508043442 60 0.0 0.0 0.00 0.00 0.00 62 1012.3
20260508042441 60 0.0 0.0 0.00 0.00 0.00 61 1012.3
20260508041441 60 0.0 0.0 0.00 0.00 0.00 61 1012.1
20260508040441 59 0.0 0.0 0.00 0.00 0.00 62 1012.3
20260508035441 60 0.0 0.0 0.00 0.00 0.00 62 1012.5
20260508034441 60 0.0 0.0 0.00 0.00 0.00 61 1012.2
20260508033441 60 0.0 0.0 0.00 0.00 0.00 61 1012.3
20260508032441 60 0.0 0.0 0.00 0.00 0.00 61 1012.1
20260508031441 60 0.0 0.0 0.00 0.00 0.00 61 1012.1
20260508030441 60 0.0 0.0 0.00 0.00 0.00 61 1012.0
20260508025441 60 0.0 0.0 0.00 0.00 0.00 61 1012.0
20260508024442 60 0.0 0.0 0.00 0.00 0.00 60 1012.1
20260508023441 60 0.0 0.0 0.00 0.00 0.00 61 1011.9
20260508022441 61 0.0 0.0 0.00 0.00 0.00 60 1011.8
20260508021441 61 0.0 0.0 0.00 0.00 0.00 60 1011.7
20260508020441 61 0.0 0.0 0.00 0.00 0.00 60 1011.6
20260508015442 61 0.0 0.0 0.00 0.00 0.00 60 1011.5
20260508014441 61 0.0 0.0 0.00 0.00 0.00 60 1011.4
20260508013441 61 0.0 0.0 0.00 0.00 0.00 60 1011.4
20260508012441 61 0.0 0.0 0.00 0.00 0.00 61 1011.3
20260508011441 61 0.0 0.0 0.00 0.00 0.00 60 1011.7
20260508010441 62 0.0 0.0 0.00 0.00 0.00 60 1012.1
20260508005441 62 0.0 0.0 0.00 0.00 0.00 60 1012.2
20260508004441 62 0.0 0.0 0.00 0.00 0.00 60 1012.4
20260508003441 62 0.0 0.0 0.00 0.00 0.00 60 1012.4
20260508002441 62 0.0 0.0 0.00 0.00 0.00 60 1012.7
20260508001442 62 0.0 0.0 0.00 0.00 0.00 59 1012.7
20260508000442 62 0.0 0.0 0.00 0.00 0.00 60 1012.9
20260507235441 62 0.0 0.0 0.00 0.00 0.00 59 1012.7
20260507234441 62 0.0 0.0 0.00 0.00 0.00 58 1012.7
20260507233441 63 0.0 0.0 0.00 0.00 0.00 58 1012.5
20260507232441 63 0.0 0.0 0.00 0.00 0.00 58 1012.6
20260507231441 63 0.0 0.0 0.00 0.00 0.00 58 1012.6
20260507230441 63 0.0 0.0 0.00 0.00 0.00 58 1012.5
20260507225441 63 0.0 0.0 0.00 0.00 0.00 57 1012.6
20260507224441 63 0.0 0.0 0.00 0.00 0.00 57 1012.7
20260507223441 63 0.0 0.0 0.00 0.00 0.00 56 1012.9
20260507222441 64 0.0 0.0 0.00 0.00 0.00 55 1012.8
20260507221441 64 0.0 0.0 0.00 0.00 0.00 55 1012.9
20260507220441 64 0.0 0.0 0.00 0.00 0.00 55 1013.0
20260507215441 64 0.0 0.0 0.00 0.00 0.00 53 1013.0
20260507214441 64 0.0 0.0 0.00 0.00 0.00 52 1013.0
20260507213441 64 0.0 0.0 0.00 0.00 0.00 51 1012.9
20260507212441 64 0.0 0.0 0.00 0.00 0.00 51 1012.8
20260507211442 64 0.0 0.0 0.00 0.00 0.00 53 1012.7
20260507210441 64 0.0 0.0 0.00 0.00 0.00 54 1012.8
20260507205441 64 0.0 0.0 0.00 0.00 0.00 54 1012.6
20260507204441 64 0.0 0.0 0.00 0.00 0.00 53 1012.4
20260507203441 64 0.0 0.0 0.00 0.00 0.00 55 1012.2
20260507202441 64 0.0 0.0 0.00 0.00 0.00 58 1012.1
20260507201441 64 0.0 0.0 0.00 0.00 0.00 59 1012.1
20260507200441 64 0.0 0.0 0.00 0.00 0.00 59 1012.0
20260507195441 64 0.0 0.0 0.00 0.00 0.00 58 1011.6
20260507194441 64 0.0 0.0 0.00 0.00 0.00 58 1011.6
20260507193442 64 0.0 0.0 0.00 0.00 0.00 59 1011.4
20260507192441 64 0.0 0.0 0.00 0.00 0.00 58 1011.2
20260507191441 64 0.0 0.0 0.00 0.00 0.00 57 1011.0
20260507190441 64 0.0 0.0 0.00 0.00 0.00 58 1010.8
20260507185441 65 0.0 0.0 0.00 0.00 0.00 58 1010.7
20260507184441 65 0.0 0.0 0.00 0.00 0.00 58 1010.5
20260507183441 65 0.0 0.0 0.00 0.00 0.00 56 1010.4
20260507182441 65 0.0 0.0 0.00 0.00 0.00 54 1010.3
20260507181441 65 0.0 0.0 0.00 0.00 0.00 55 1010.1
20260507180441 65 0.0 0.0 0.00 0.00 0.00 56 1009.9
20260507175441 66 0.0 0.0 0.00 0.00 0.00 56 1009.7
20260507174441 66 0.0 0.0 0.00 0.00 0.00 57 1009.7
20260507173441 66 0.0 0.0 0.00 0.00 0.00 53 1009.8
20260507172441 66 0.0 0.0 0.00 0.00 0.00 52 1009.8
20260507171441 66 0.0 0.0 0.00 0.00 0.00 50 1009.8
20260507170441 66 0.0 0.0 0.00 0.00 0.00 49 1009.8
20260507165441 67 0.0 0.0 0.00 0.00 0.00 50 1009.4
20260507164441 67 0.0 0.0 0.00 0.00 0.00 50 1009.1
20260507163441 67 0.0 0.0 0.00 0.00 0.00 54 1009.1
20260507162441 67 0.0 0.0 0.00 0.00 0.00 54 1009.0
20260507161441 67 0.0 0.0 0.00 0.00 0.00 50 1009.0
20260507160441 67 0.0 0.0 0.00 0.00 0.00 47 1008.9
20260507155441 67 0.0 0.0 0.00 0.00 0.00 50 1008.8
20260507154441 67 0.0 0.0 0.00 0.00 0.00 47 1008.9
20260507153441 67 0.0 0.0 0.00 0.00 0.00 47 1008.9
20260507152441 67 0.0 0.0 0.00 0.00 0.00 49 1009.0
20260507151441 67 0.0 0.0 0.00 0.00 0.00 47 1009.1
20260507150441 67 0.0 0.0 0.00 0.00 0.00 50 1009.2
20260507145441 67 0.0 0.0 0.00 0.00 0.00 51 1009.3
20260507144441 66 0.0 0.0 0.00 0.00 0.00 52 1009.6
20260507143441 66 0.0 0.0 0.00 0.00 0.00 51 1009.7
20260507142441 66 0.0 0.0 0.00 0.00 0.00 52 1009.8
20260507141441 66 0.0 0.0 0.00 0.00 0.00 50 1010.2
20260507140441 65 0.0 0.0 0.00 0.00 0.00 52 1010.5
20260507135441 66 0.0 0.0 0.00 0.00 0.00 50 1010.4
20260507134441 65 0.0 0.0 0.00 0.00 0.00 55 1010.7
20260507133441 64 0.0 0.0 0.00 0.00 0.00 53 1011.1
20260507132441 64 0.0 0.0 0.00 0.00 0.00 51 1011.4
20260507130000 67 0.0 0.0 0.00 0.00 0.00 43 1010.2
20260507125000 68 0.0 0.0 0.00 0.00 0.00 40 1009.9
20260507124000 68 0.0 0.0 0.00 0.00 0.00 41 1009.8
20260507123001 67 0.0 0.0 0.00 0.00 0.00 41 1010.0
20260507122001 67 0.0 0.0 0.00 0.00 0.00 42 1010.1
20260507121001 67 0.0 0.0 0.00 0.00 0.00 42 1010.2
20260507120000 67 0.0 0.0 0.00 0.00 0.00 42 1010.3
20260507115000 67 0.0 0.0 0.00 0.00 0.00 43 1010.5
20260507114000 67 0.0 0.0 0.00 0.00 0.00 43 1010.6
20260507113000 67 0.0 0.0 0.00 0.00 0.00 43 1010.6
20260507112000 67 0.0 0.0 0.00 0.00 0.00 43 1010.8
20260507111001 67 0.0 0.0 0.00 0.00 0.00 43 1010.9
20260507110001 67 0.0 0.0 0.00 0.00 0.00 43 1011.0
20260507105000 67 0.0 0.0 0.00 0.00 0.00 44 1010.9
20260507104000 67 0.0 0.0 0.00 0.00 0.00 43 1011.0
20260507103000 67 0.0 0.0 0.00 0.00 0.00 44 1010.8
20260507102001 67 0.0 0.0 0.00 0.00 0.00 44 1010.9
20260507101000 67 0.0 0.0 0.00 0.00 0.00 45 1011.1
20260507100001 67 0.0 0.0 0.00 0.00 0.00 45 1011.2
20260507095001 66 0.0 0.0 0.00 0.00 0.00 47 1011.4
20260507094000 66 0.0 0.0 0.00 0.00 0.00 47 1011.3
20260507093000 65 0.0 0.0 0.00 0.00 0.00 48 1011.6
20260507092000 64 0.0 0.0 0.00 0.00 0.00 48 1011.5